Regional Weather Roundup
Issued by NWS Charleston, SC

Current Version | Previous Version | Graphics & Text | Print | Product List | Glossary On
Versions: 1 2 3 4 5 6 7 8 9 10 11 12 13 14 15 16 17 18 19 20 21 22 23 24 25 26 27 28 29 30 31 32 33 34 35 36 37 38 39 40 41 42 43 44 45 46 47 48 49 50
000
ASUS42 KCHS 291428
RWRCHS

REGIONAL WEATHER ROUNDUP
NATIONAL WEATHER SERVICE CHARLESTON SC
1000 AM EDT FRI JUL 29 2016

NOTE: "FAIR" INDICATES FEW OR NO CLOUDS BELOW 12,000 FEET WITH NO
SIGNIFICANT WEATHER AND/OR OBSTRUCTIONS TO VISIBILITY.

NOT ALL STATIONS ARE QUALITY CONTROLLED. USE DATA WITH CAUTION...
ESPECIALLY DEWPOINT OBSERVATIONS.

SCZ027-030-031-034>040-042>050-291500-
...SOUTHEAST SOUTH CAROLINA...

CITY           SKY/WX    TMP DP  RH WIND       PRES   REMARKS
N CHARLESTON   MOSUNNY   88  71  57 W13       29.98F HX  94
WATERFRONT PRK   N/A     85  72  64 W5        29.97S HX  91
MOUNT PLEASANT FAIR      90  73  58 W9        29.98F HX  98
JOHNS ISLAND   FAIR      90  73  58 W12       29.99S HX  98
PINOPOLIS        N/A     84  73  70 W13       29.91S HX  91
MONCKS CORNER  FAIR      86  68  54 W6        29.97F
SUMMERVILLE    FAIR      88  72  58 W10G16    29.99F HX  94
BEAUFORT MCAS  SUNNY     89  70  53 W7        30.00F HX  94
BEAUFORT ARPT  FAIR      90  72  55 W10       30.00S HX  96
HILTON HEAD IS SUNNY     88  72  58 W10       30.00S HX  94
WALTERBORO     SUNNY     90  70  51 W12G17    30.00S HX  95
ALLENDALE      FAIR      88  72  58 VRB6      29.99S HX  94

...SOUTHERN MIDLANDS AND PEE DEE...

CITY           SKY/WX    TMP DP  RH WIND       PRES   REMARKS
GEORGETOWN     FAIR      86  72  62 W9G20     29.97F HX  92
KINGSTREE      FAIR      86  70  58 SW10G17   29.96S HX  90
ORANGEBURG     SUNNY     86  71  60 W10G20    29.98S HX  91
BARNWELL       NOT AVBL
AIKEN          FAIR      86  70  58 W10       30.03S HX  90
MANNING        FAIR      86  70  58 W8G20     29.97S HX  90
COLUMBIA       MOSUNNY   89  70  53 W14       29.96S HX  94
SUMTER         MOSUNNY   85  71  62 W12       29.94S HX  90
FLORENCE       MOSUNNY   86  72  62 W10       29.95S HX  92
MYRTLE BEACH   SUNNY     90  70  51 W10       29.97S HX  95
N MYRTLE BEACH SUNNY     89  71  55 W8G21     29.94F HX  95

$$

GAZ063-065-086>088-099>101-113>116-118-119-134>141-150-291500-
...SOUTHEAST GEORGIA...

CITY           SKY/WX    TMP DP  RH WIND       PRES   REMARKS
SAVANNAH ARPT  MOSUNNY   88  70  55 NW10      30.01F HX  93
HUNTER AAF     SUNNY     88  75  65 NW10      29.99S HX  97
FORT STEWART   SUNNY     87  71  58 NW9       30.00F HX  93
STATESBORO     SUNNY     87  74  66 W8        30.02S HX  95
SYLVANIA       NOT AVBL
CLAXTON        FAIR      88  74  61 SW7       30.02F HX  96

...CSRA...CENTRAL AND FAR SOUTHEAST GEORGIA...

CITY           SKY/WX    TMP DP  RH WIND       PRES   REMARKS
THOMSON        NOT AVBL
AUGUSTA-BUSH   SUNNY     87  70  56 W12G18    29.99S HX  92
AUGUSTA-DANIEL SUNNY     87  70  56 NW9       30.01S HX  92
SWAINSBORO     FAIR      86  72  62 NW7       30.04S HX  92
VIDALIA        SUNNY     88  70  55 W5        30.04S HX  92
EASTMAN        FAIR      87  63  44 W6        30.07S
HAZLEHURST     FAIR      89  75  64 CALM      30.03F HX  99
ALMA           SUNNY     88  71  57 W8        30.04S HX  94
WAYCROSS       SUNNY     92  78  62 NW8       30.04F HX 106
JESUP          FAIR      90  75  62 NW10      30.03F HX 100
BAXLEY         FAIR      88  77  70 NW7       30.03F HX 100
BRUNSWICK      SUNNY     90  77  66 NW6       30.04S HX 102
SAINT SIMONS   SUNNY     88  73  61 NW8       30.03F HX  95

$$

SCZ027-028-034-036>038-045-046-048>050-GAZ119-141-291500-
...LAKE AND SUPPLEMENTAL COASTAL OBSERVATIONS...

STATION/POSITION TIME  TEMP    WIND        PRES    WAVE   SWELL
                       AIR SEA DIR/SP/G            HT/PER HT/PER/DIR
                 (UTC) (F)     (DEG/KT/KT) (MB)    (FT/S) (FT/S/D)
WINYAH BAY       1300   85     260/  8     1014.0S
LAKE MURRAY      1300   81     280/ 11/ 16 1014.2R
ACE BASIN NERRS  1300   84     280/  3     1016.0S
FORT PULASKI     1400   86 87  290/ 11/ 13 1016.7R
SAPELO ISLAND    1400   88     300/  7     1017.0S

$$

ANZ835-935-AMZ111-154-330-350-352-354-370-450-454-472-291500-
...C-MAN AND BUOY OBSERVATIONS...

STATION/POSITION TIME  TEMP    WIND        PRES    WAVE   SWELL
                       AIR SEA DIR/SP/G            HT/PER HT/PER/DIR
                 (UTC) (F)     (DEG/KT/KT) (MB)    (FT/S) (FT/S/D)
BUOY 41004       1350   85 85  280/ 12/ 14 1015.2R   4/ 6   3/210/ 6
BUOY 41008       1350   84 86  280/ 12/ 14 1016.7R   3/ 3   2/ 90/ 8
FOLLY BEACH CMAN 1400   87     260/  7/ 12 1015.6F
CAPERS NEARSHORE 1408   86 85  270/ 10/ 12 1015.2F
FRIPP NEARSHORE  1408   86 87  300/ 12/ 14 1015.4F


STATION/POSITION TIME  TEMP    WIND        PRES    WAVE   SWELL
                       AIR SEA DIR/SP/G            HT/PER HT/PER/DIR
                 (UTC) (F)     (DEG/KT/KT) (MB)    (FT/S) (FT/S/D)
5E ST. MARYS GA  1401      85                N/A     2/ 5
FRYING PAN BUOY  1400   85 85  250/ 14/ 16 1014.1F
BUOY 41025       1250   84 85  240/ 17/ 19 1012.5    4/ 6   2/140/ 9
CAPE LOOKOUT NC  1400   86     240/ 13/ 16 1012.7R
BUOY 41002       1350   84 85  240/ 10/ 12 1016.6F   3/ 6   3/250/ 6
BUOY 41010       1320   85 86  270/ 14/ 16 1017.8R
ST AUGUSTINE FL  1400   85 83  330/  6/  7 1018.8R


$$




USA.gov is the U.S. government's official web portal to all federal, state and local government web resources and services.